P/2022 P2 ( ZTF )

Japanese version
Home page
Updated on December 28, 2022

---------------------------------------------------------------------

* Profile

Discovery Date August 15, 2022
Magnitude 18.5 mag
Discoverer Zwicky Transient Facility

* Pictures

* Orbital Elements

Epoch 2023 Feb. 25.0 TT = JDT 2460000.5
T 2022 July 10.84843 TT                                 Rudenko
q   1.9825675            (2000.0)            P               Q
n   0.10366391     Peri.  137.61833     +0.34607600     -0.91645954
a   4.4879808      Node   291.23032     +0.79264288     +0.40012738
e   0.5582496      Incl.   12.44216     +0.50194489     +0.00001301
P   9.51
>From 122 observations 2022 Aug. 15-Dec. 20, mean residual 0".7.

* Magnitudes Graph

        m1 =  14.0 + 5 log d + 10.0 log r           [   , 30]  (             - 2022 Aug. 10)
        m1 = -15   + 5 log d + 50   log r(t + 400)  [ 30,162]  (2022 Aug. 10 - 2022 Dec. 20)
        m1 =  14.0 + 5 log d + 10.0 log r           [162,   ]  (2022 Dec. 20 -             )

---------------------------------------------------------------------

The orbital elements are published on M.P.E.C. 2022-Y114.
The magnitudes graphs are made with Comet for Windows.

---------------------------------------------------------------------

Copyright(C) Seiichi Yoshida (comet@aerith.net). All rights reserved.